Tracking 28790 objects as of 19-Apr-2024
HD Live streaming from Space Station
objects crossing your sky now

ORBCOMM FM 8

Track ORBCOMM FM 8 now!
10-day predictions
ORBCOMM FM 8 is classified as:


NORAD ID: 25112
Int'l Code: 1997-084A
Perigee: 751.8 km
Apogee: 764.0 km
Inclination: 45.0 °
Period: 99.8 minutes
Semi major axis: 7128 km
RCS: 0.5203 m2 (medium)
Launch date: December 23, 1997
Source: ORBCOMM (ORB)
Launch site: Pegasus launched from Eastern Range Air Space (ERAS)
Your satellite tracking list
Your tracking list is empty




NASA's NSSDC Master Catalog

Two Line Element Set (TLE):
1 25112U 97084A   24109.37228826  .00005288  00000-0  16264-2 0  9997
2 25112  45.0130 241.7996 0008545 256.0228 103.9672 14.42357281379960
Source of the keplerian elements: AFSPC